726  
ASUS42 KCHS 241927  
RWRCHS  
 
REGIONAL WEATHER ROUNDUP  
NATIONAL WEATHER SERVICE CHARLESTON SC  
300 PM EDT MON SEP 24 2018  
 
NOTE: "FAIR" INDICATES FEW OR NO CLOUDS BELOW 12,000 FEET WITH NO  
SIGNIFICANT WEATHER AND/OR S TO VISIBILITY
.  
 
NOT ALL STATIONS ARE QUALITY CONTROLLED. USE DATA WITH CAUTION,  
ESPECIALLY DEWPOINT OBSERVATIONS.  
 
SCZ027-030-031-034>040-042>050-242000-   
..SOUTHEAST SOUTH CAROLINA
 
 
 
CITY SKY/WX TMP DP RH WIND PRES REMARKS
 
N CHARLESTON FAIR 87 74 64 E8 30.11F HX 95  
WATERFRONT PRK N/A 83 76 79 E15 29.96F HX 91  
MOUNT PLEASANT FAIR 84 75 74 E8G17 30.11F HX 92  
JOHNS ISLAND FAIR 84 75 74 E17 30.11F HX 92  
PINOPOLIS N/A 82 75 78 NE7 30.07F  
MONCKS CORNER CLOUDY 84 75 74 E9 30.11F HX 92  
SUMMERVILLE MOCLDY 82 73 74 N8 30.12F  
BEAUFORT MCAS FAIR 89 74 60 E9 30.10F HX 98  
BEAUFORT ARPT FAIR 86 73 66 E14 30.09F HAZE HX 93  
HILTON HEAD IS MOSUNNY 86 75 70 NE6 30.11F HX 95  
WALTERBORO MOCLDY 86 72 62 NE9 30.11F HX 92  
ALLENDALE MOCLDY 86 70 58 CALM 30.09F HX 90  
   
..SOUTHERN MIDLANDS AND PEE DEE
 
 
 
CITY SKY/WX TMP DP RH WIND PRES REMARKS
 
GEORGETOWN CLOUDY 82 77 83 NE8 30.14F HX 91  
KINGSTREE MOCLDY 81 73 78 CALM 30.14F  
ORANGEBURG FAIR 84 70 62 NE12 30.14F  
BARNWELL CLOUDY 84 72 65 NE9 30.12F  
AIKEN CLOUDY 81 68 65 E12 30.17F  
MANNING FAIR 79 68 69 N10 30.14F  
COLUMBIA PTSUNNY 82 71 69 E12 30.15F  
SUMTER PTSUNNY 80 69 69 E13 30.16F  
FLORENCE CLOUDY 79 70 74 NE8 30.18F  
MYRTLE BEACH CLOUDY 83 72 69 E10 30.16F  
N MYRTLE BEACH CLOUDY 83 73 72 NW3 30.15F  
 

 
 
GAZ063-065-086>088-099>101-113>116-118-119-134>141-150-242000-   
..SOUTHEAST GEORGIA
 
 
 
CITY SKY/WX TMP DP RH WIND PRES REMARKS
 
SAVANNAH ARPT PTSUNNY 90 70 51 E17 30.09F HX 95  
HUNTER AAF FAIR 88 73 59 E13 30.06F HX 96  
FORT STEWART PTSUNNY 90 70 51 E14 30.06F HX 95  
STATESBORO CLOUDY 76 73 90 W3 30.10F  
SYLVANIA CLOUDY 88 71 58 SE5 30.10F HX 94  
CLAXTON RAIN 83 74 75 E3 30.10F HX 90  
   
..CSRA, CENTRAL AND FAR SOUTHEAST GEORGIA
 
 
 
CITY SKY/WX TMP DP RH WIND PRES REMARKS
 
THOMSON CLOUDY 83 71 66 SE8 30.17F  
AUGUSTA-BUSH CLOUDY 85 73 67 NE6 30.11F HX 91  
AUGUSTA-DANIEL CLOUDY 81 73 76 NE6 30.14F  
SWAINSBORO CLOUDY 82 75 78 E3 30.10F  
VIDALIA PTSUNNY 88 64 45 E9 30.07F  
EASTMAN MOCLDY 89 71 55 E12G17 30.09F HX 94  
HAZLEHURST FAIR 92 60 34 E3 30.05F HX 91  
ALMA FAIR 90 67 46 SE6 30.05F HX 93  
WAYCROSS FAIR 90 71 52 SE10G17 30.05F HX 95  
JESUP FAIR 91 72 52 SE9 30.06F HX 98  
BAXLEY PTSUNNY 88 68 51 SE6 30.06F HX 91  
BRUNSWICK CLOUDY 81 72 74 E14G22 30.09F  
SAINT SIMONS CLOUDY 83 72 69 NE12 30.07F  
 

 
 
SCZ027-028-034-036>038-045-046-048>050-GAZ119-141-242000-   
..LAKE AND SUPPLEMENTAL COASTAL OBSERVATIONS
 
 
 
STATION/POSITION TIME TEMP WIND PRES WAVE SWELL
 
AIR SEA DIR/SP/G HT/PER HT/PER/DIR  
(UTC) (F) (DEG/KT/KT) (MB) (FT/S) (FT/S/D)  
WINYAH BAY 1845 80 60/ 11 1021.0F  
LAKE MURRAY 1820 77 80/ 9/ 12 1021.0  
ACE BASIN NERRS 1845 88 80/ 3 1019.0F  
FORT PULASKI 1900 82 83 1019.6  
SAPELO ISLAND 1900 84 80/ 9 1019.0  
 

 
 
ANZ835-935-AMZ111-154-330-350-352-354-370-450-454-472-242000-   
..C-MAN AND BUOY OBSERVATIONS
 
 
 
STATION/POSITION TIME TEMP WIND PRES WAVE SWELL
 
AIR SEA DIR/SP/G HT/PER HT/PER/DIR  
(UTC) (F) (DEG/KT/KT) (MB) (FT/S) (FT/S/D)  
BUOY 41004 1910 70/ 10/ 14 1019.5  
BUOY 41008 1850 83 84 70/ 12/ 14 1018.6F 3/ 9 2/110/ 9  
FOLLY BEACH CMAN 1900 81 60/ 18/ 21 1020.5F  
CAPERS NEARSHORE 1908 80 82 60/ 16/ 19 1019.0F  
FRIPP NEARSHORE 1908 82 83 70/ 12/ 16 1018.8F  
 
 
STATION/POSITION TIME TEMP WIND PRES WAVE SWELL
 
AIR SEA DIR/SP/G HT/PER HT/PER/DIR  
(UTC) (F) (DEG/KT/KT) (MB) (FT/S) (FT/S/D)  
5E ST. MARYS GA 1900 85 N/A 3/ 9 2/ 90/11  
FRYING PAN BUOY 1910 40/ 16/ 19 1020.4  
BUOY 41025 1910 78 79 30/ 16/ 17 1021.9  
CAPE LOOKOUT NC 1900 50/ 19/ 20 1021.8F  
BUOY 41002 1900 40/ 19/ 23 1016.7  
BUOY 41010 1900 84 85 90/ 12/ 14 1017.5  
ST AUGUSTINE FL 1900 83 83 100/ 13/ 15 1018.0F  
 

 
 
 
CLICK HERE TO GO TO PREVIOUS BULLETINS.

The Nexlab SC Page
The Nexlab GA Page Main Text Page